Theta_e
329 329 329 329 329 330 329 329 329 331 332 331 331 329 329 330 330 329 329 328 328 328 327 326 326 327 327 326 327 327 326 326 328 327 325 325 327 328 329 329 329 328
328 328 329 329 330 330 330 329 329 329 331 331 331 330 329 330 329 328 328 328 328 327 326 326 326 327 327 327 328 327 325 325 325 325 324 325 326 328 329 329 328 327
326 327 328 329 329 330 330 329 328 328 330 332 331 329 329 328 328 327 328 328 328 327 326 326 326 327 327 328 328 327 327 326 325 324 325 326 327 328 329 329 328 327
326 326 327 328 328 329 329 329 328 327 330 332 330 329 328 328 327 327 328 328 328 327 327 326 326 327 327 327 327 326 327 328 327 326 326 328 328 328 329 328 327 328
326 327 327 327 327 328 328 329 327 328 330 331 330 329 328 328 327 327 328 328 327 327 327 326 326 326 326 326 326 325 327 328 327 327 327 328 328 328 329 328 327 328
325 326 327 327 327 327 328 328 327 328 330 331 330 329 328 328 327 327 328 327 327 327 327 326 325 325 325 327 327 328 328 328 327 327 327 328 328 328 328 328 328 327
324 326 327 327 327 327 327 328 328 328 330 330 330 329 329 328 327 327 327 327 327 327 326 325 324 325 326 327 328 329 329 328 327 327 328 328 328 328 328 329 328 327
324 326 327 327 327 327 327 328 328 328 330 330 330 330 329 328 326 326 326 325 326 326 325 325 325 325 326 326 327 328 328 328 327 327 327 327 328 328 328 328 328 328
324 326 327 326 327 327 327 327 328 329 330 329 330 330 329 327 325 325 325 324 325 326 326 326 326 326 326 325 326 327 327 327 327 327 327 328 327 327 327 327 328 328
324 326 327 326 326 326 327 327 328 329 329 329 329 330 329 327 326 325 325 324 325 326 327 327 328 328 327 325 326 326 326 326 326 327 327 327 327 327 327 327 327 328
325 326 327 326 325 326 326 327 326 328 328 328 328 329 329 327 327 326 326 325 325 326 327 328 328 327 327 326 325 325 326 326 326 326 327 327 327 326 326 327 327 328
325 326 326 326 326 326 326 326 326 327 328 327 327 328 328 327 327 327 327 326 326 327 327 327 326 326 325 324 323 323 324 325 325 325 326 326 326 326 326 326 327 327
323 325 325 326 326 326 326 327 326 326 327 328 328 328 327 326 326 326 326 327 327 327 327 326 325 324 324 322 321 321 321 323 325 325 326 326 325 326 326 326 327 327
321 323 324 325 326 326 327 327 327 327 328 328 329 328 327 326 325 326 326 326 326 326 326 326 325 324 323 322 321 320 320 322 324 325 325 325 325 325 325 326 327 326
318 320 323 324 325 326 326 327 327 327 328 328 328 328 327 326 325 325 326 325 325 325 326 325 324 322 322 322 322 320 320 322 323 324 325 325 325 325 324 326 326 326
315 318 320 323 324 325 326 327 327 326 326 327 327 327 327 326 325 324 325 325 325 325 325 324 321 320 320 321 321 320 321 322 322 323 324 324 324 324 324 325 326 326
313 316 318 321 323 324 325 326 326 325 325 325 326 327 326 326 326 325 325 325 325 325 325 323 320 318 319 320 321 320 321 322 322 323 324 324 324 324 324 324 325 325
311 313 315 318 320 322 323 325 326 325 324 324 325 327 326 326 326 325 325 325 325 326 326 325 321 318 318 320 321 321 321 322 322 323 324 324 324 324 324 324 324 325
310 311 312 315 317 320 321 323 324 325 325 325 325 326 326 326 326 326 326 325 325 326 326 325 323 320 318 320 321 321 321 322 322 322 324 325 324 324 324 324 324 324
309 310 310 311 313 316 319 321 322 323 324 325 325 326 326 326 326 326 326 325 325 325 326 325 324 322 320 320 321 321 320 321 322 322 324 324 324 323 324 324 324 324
308 309 309 310 311 312 315 318 320 321 321 322 323 324 325 326 326 326 325 325 324 324 324 324 324 323 322 321 322 321 321 322 322 323 324 324 323 323 324 324 324 323
307 307 308 308 309 310 311 313 315 317 318 319 320 321 322 323 325 326 326 325 324 323 324 324 324 324 323 322 322 322 322 322 323 323 323 323 323 323 323 324 323 323
307 307 306 307 307 308 308 309 310 312 313 314 315 316 318 319 321 323 324 325 324 324 324 324 324 324 323 323 323 322 322 322 322 322 322 322 322 322 322 323 323 322
306 306 306 306 306 306 307 307 307 308 309 309 311 312 313 315 316 318 320 321 322 323 323 323 324 324 323 323 322 322 322 322 322 322 321 322 321 321 322 323 323 322
305 305 305 306 306 306 306 306 306 306 306 307 307 308 309 311 312 313 315 316 318 319 320 321 322 322 322 323 322 323 323 323 322 322 321 321 321 320 321 322 322 322
304 305 305 305 305 305 305 305 305 305 305 305 306 306 307 308 308 309 311 312 313 314 315 317 319 319 320 322 322 323 323 322 322 322 321 321 321 320 320 321 322 322
Wind_Speed
16 17 19 20 18 16 18 19 19 18 18 17 15 14 13 12 12 14 15 18 19 18 17 18 18 17 16 17 17 16 17 19 19 19 18 17 16 15 14 14 16 17
14 16 18 19 17 15 17 19 18 18 18 16 14 13 13 12 13 15 16 18 19 19 18 17 16 16 15 15 16 16 17 18 19 19 19 17 16 15 14 15 17 18
13 15 17 18 18 17 17 18 17 17 17 14 13 14 14 13 14 15 16 17 20 20 18 17 16 15 15 15 15 17 18 18 19 19 18 17 16 16 15 15 17 19
13 14 16 17 19 19 17 16 16 18 17 14 13 14 14 13 13 14 15 17 20 20 18 17 16 15 14 14 15 17 18 18 18 18 18 17 16 16 15 16 17 19
11 11 13 15 17 19 18 17 17 17 16 14 14 15 14 13 13 13 15 17 17 18 17 17 16 15 14 13 14 16 16 17 18 18 18 17 16 16 16 16 17 19
11 10 11 13 15 16 18 19 17 16 16 15 16 16 14 13 14 14 15 16 16 16 17 17 16 15 14 13 13 14 15 16 17 17 18 18 17 17 16 16 18 19
13 12 11 12 12 13 16 18 18 17 16 16 17 16 14 14 15 15 15 15 15 17 18 18 17 15 14 13 13 13 14 15 16 17 17 17 17 17 17 17 17 18
14 13 12 12 12 12 13 16 17 17 16 16 17 15 13 15 15 15 15 15 16 17 18 18 17 16 14 14 13 14 15 15 16 17 17 17 17 17 17 17 17 18
14 13 13 11 10 11 12 13 14 16 16 16 15 14 14 15 16 15 16 16 16 17 18 18 16 16 15 14 14 14 14 15 15 16 16 17 17 17 17 17 18 18
12 12 13 11 8 8 10 11 13 16 17 17 15 14 14 15 16 16 16 16 17 18 18 17 16 15 14 13 13 13 13 14 14 15 16 16 17 17 17 18 19 19
11 11 12 12 9 7 8 10 13 15 17 17 15 14 15 15 16 16 16 16 17 18 18 17 15 14 13 12 12 12 13 14 14 14 15 16 17 17 17 18 18 18
10 10 10 12 10 7 6 8 11 13 16 17 16 14 15 16 16 16 16 16 16 17 18 17 15 14 12 12 12 12 13 13 14 15 15 16 17 16 17 17 17 18
9 9 10 11 11 8 6 6 7 9 13 16 15 15 15 16 16 16 15 15 16 17 18 17 16 14 12 12 12 12 13 13 14 15 15 15 16 16 17 17 16 17
10 9 9 9 10 9 6 4 6 7 10 12 12 13 15 15 15 15 14 15 16 18 19 18 16 14 13 12 12 12 13 13 14 14 14 15 16 16 17 17 16 17
15 11 9 9 9 8 6 4 5 6 7 9 10 11 12 12 14 14 13 14 16 18 19 18 15 14 13 13 12 12 13 13 14 14 14 14 15 16 17 17 17 17
21 15 11 9 8 8 6 4 5 6 7 9 10 10 10 11 13 14 13 13 15 18 18 16 15 14 13 13 13 13 13 13 14 14 14 14 15 16 16 16 17 17
28 21 14 11 8 8 7 5 5 7 8 10 10 9 10 12 13 14 13 14 16 18 17 15 14 14 14 14 14 14 14 14 14 14 14 15 15 15 16 16 17 17
32 28 22 15 10 9 8 8 8 9 10 11 11 10 11 13 14 15 14 15 17 19 18 15 14 15 15 14 14 14 14 15 16 16 15 15 15 14 15 15 16 16
32 32 29 23 15 10 9 8 9 10 11 12 12 12 12 13 14 15 15 16 18 19 18 16 14 14 15 15 14 14 14 15 16 17 16 16 15 15 15 15 15 15
33 33 33 30 24 16 10 7 7 8 10 12 12 14 14 14 15 15 15 16 17 19 19 17 16 15 16 16 15 15 14 15 17 18 17 17 16 15 14 14 14 14
35 34 33 33 31 26 18 11 8 7 8 10 12 14 16 17 17 17 17 17 17 18 19 18 17 17 17 17 16 16 15 16 17 18 18 18 17 15 14 14 14 14
35 36 35 34 33 32 28 22 16 12 10 10 11 13 15 16 18 19 20 19 19 19 19 19 20 19 18 18 18 17 17 17 18 18 18 18 17 16 16 16 15 14
34 35 36 36 34 34 33 31 27 22 19 15 13 12 13 14 16 19 21 21 21 21 21 20 21 22 21 20 19 19 18 18 18 17 17 17 17 17 18 17 16 15
33 34 35 35 35 34 33 32 31 29 26 23 20 17 15 13 14 16 18 19 20 22 22 22 22 23 24 22 20 19 19 18 17 17 17 17 17 17 19 19 18 17
31 32 33 33 33 32 32 31 30 28 26 25 23 21 18 16 13 13 15 16 17 19 21 22 23 23 25 25 22 19 19 19 18 16 16 16 16 16 19 21 21 20
30 31 31 31 30 30 29 29 27 25 23 22 21 19 17 15 13 11 10 11 12 14 16 19 21 21 23 25 23 21 21 21 20 18 17 17 17 17 18 21 23 22
Wind_Direction
282 281 280 282 281 276 274 275 278 280 278 277 279 268 250 243 239 235 229 222 216 213 216 217 220 225 224 227 235 235 234 238 238 239 239 236 235 236 236 232 227 224
289 285 278 275 276 268 257 256 260 267 267 266 271 263 245 237 236 233 228 223 218 216 217 218 222 230 231 230 239 244 244 242 241 241 240 236 234 235 237 234 227 223
306 299 288 279 276 266 252 249 251 256 259 256 255 255 244 236 238 233 223 217 216 216 218 221 224 231 236 239 246 250 248 245 243 242 242 237 234 235 236 235 229 223
316 311 301 288 279 270 259 252 245 244 248 247 246 249 243 237 241 232 216 211 213 215 218 223 226 231 238 246 252 255 251 247 244 242 242 240 238 238 236 234 230 223
321 318 306 293 282 274 264 252 244 242 245 244 243 244 239 236 237 228 215 211 213 217 220 223 227 234 243 250 252 252 248 245 243 241 242 243 242 241 237 234 229 224
326 326 315 301 289 279 268 257 250 248 247 244 242 240 235 231 231 225 217 214 216 220 222 225 230 236 245 250 247 245 243 242 242 240 241 243 242 240 236 233 230 226
325 324 320 311 297 279 267 259 252 248 247 242 238 238 233 227 228 227 220 216 218 221 223 227 233 236 240 243 242 241 242 241 240 240 240 240 239 237 235 233 230 227
331 324 316 313 307 290 271 261 250 242 240 238 235 238 232 224 226 227 221 218 219 222 225 229 233 233 233 236 238 240 242 242 240 239 237 236 235 235 234 233 231 228
333 329 315 306 309 304 285 268 251 239 236 234 236 239 230 223 226 227 225 224 223 223 226 228 230 230 228 230 234 237 240 242 242 240 236 235 235 235 235 235 233 229
324 327 322 308 302 305 293 270 248 239 235 231 236 241 231 225 229 231 232 233 230 227 227 227 227 226 223 225 230 234 239 241 242 240 238 237 236 236 237 238 235 231
317 318 325 322 308 297 292 269 242 231 230 231 237 241 234 229 231 234 237 238 236 233 231 228 226 222 219 221 225 229 236 241 242 240 238 238 237 236 237 237 236 234
313 311 319 325 317 297 286 278 255 231 223 228 237 239 236 234 233 234 238 240 238 237 233 231 228 224 222 222 223 226 232 239 241 239 238 237 235 234 235 236 235 234
314 310 313 322 322 308 293 299 292 254 226 224 229 233 235 237 236 234 235 239 242 241 237 234 232 228 224 222 222 225 231 236 239 239 239 237 233 231 232 235 233 230
338 319 311 317 324 321 304 294 304 281 240 226 226 232 235 238 239 236 233 237 242 242 238 234 231 227 225 225 225 225 228 233 237 239 240 236 232 231 231 232 231 227
2 340 321 313 314 321 320 285 275 271 249 238 240 243 242 241 240 237 235 239 244 242 237 233 229 226 226 228 229 226 224 228 234 237 237 235 233 234 233 230 227 225
16 0 340 323 309 311 323 305 265 259 258 255 250 247 248 247 244 240 240 244 247 244 239 235 232 230 228 230 232 229 223 225 232 236 236 237 237 235 232 228 226 225
26 19 3 343 325 311 308 302 278 264 263 263 256 246 243 244 244 243 245 250 250 245 240 239 240 235 230 230 232 229 225 225 230 234 237 238 238 236 233 229 226 226
28 27 20 6 348 329 315 300 281 268 265 265 262 255 247 244 245 245 247 251 251 246 243 243 244 239 232 230 230 228 225 226 230 233 236 237 237 236 234 230 225 223
27 28 27 22 10 353 335 314 289 275 274 274 270 266 262 258 254 251 251 252 251 248 246 246 245 240 231 226 226 228 227 228 230 233 234 234 234 233 232 229 224 221
28 28 29 28 24 15 1 340 316 299 292 287 278 272 268 266 260 254 251 251 251 252 251 248 243 237 230 225 224 228 232 232 232 232 231 230 230 230 228 226 222 218
29 28 29 30 29 26 22 14 359 340 322 308 294 280 271 268 264 258 252 250 252 255 255 252 245 234 228 227 227 229 233 232 230 229 228 227 226 225 224 219 215 215
28 27 28 29 29 29 29 27 24 15 1 344 323 303 288 278 270 264 259 256 256 255 253 250 248 240 232 229 230 232 233 230 226 225 226 225 223 223 222 215 211 214
27 26 26 27 28 29 29 29 29 28 24 15 358 337 319 301 283 269 261 256 255 254 251 247 247 246 241 234 231 234 233 227 222 220 221 221 220 222 220 211 208 210
27 25 25 27 28 29 29 28 29 29 27 24 18 9 354 333 308 286 271 260 252 249 249 246 245 246 245 238 232 232 231 226 221 217 216 217 218 219 215 209 207 207
28 27 27 27 28 29 29 29 29 29 27 25 23 19 11 357 337 313 293 276 261 249 244 241 240 242 242 238 230 226 225 224 222 218 215 215 218 219 214 210 207 205
30 29 28 29 31 31 30 31 31 31 29 29 29 25 19 12 1 345 323 300 281 267 254 243 235 232 233 232 227 220 217 219 220 219 218 217 219 221 218 212 208 205